Weather Service Report


291 
ASUS41 KGYX 260010
RWRGYX
WEATHER ROUNDUP FOR MAINE AND NEW HAMPSHIRE
NATIONAL WEATHER SERVICE GRAY ME
800 PM EDT SAT APR 25 2015

MEZ002-005-006-010-012-015-018-020-021-024-026-027-029-260100-
MAINE
  
CITY           SKY/WX    TMP DP  RH WIND       PRES   REMARKS
PORTLAND       CLOUDY    48  29  47 NW12      29.71R                  
6HR MIN TEMP:  48; 6HR MAX TEMP:  55;                                

SANFORD        CLEAR     45  23  42 NW5       29.72R                  
BAR HARBOR     CLOUDY    43  36  75 CALM      29.66R                  
WISCASSET      CLOUDY    45  31  58 CALM      29.70R                  
6HR MIN TEMP:  45; 6HR MAX TEMP:  50;                                

ROCKLAND       CLOUDY    43  34  70 SW7       29.67R                  
FRYEBURG       MOCLDY    41  27  57 N3        29.72R                  
6HR MIN TEMP:  41; 6HR MAX TEMP:  47;                                

LEWISTONAUBURN CLOUDY    45  27  49 NW12      29.70R                  
AUGUSTA        LGT RAIN  42  32  67 NW7       29.68R                  
6HR MIN TEMP:  42; 6HR MAX TEMP:  48; 6HR PCP: TRACE;                

WATERVILLE     CLOUDY    45  28  53 NW8       29.66R                  
BANGOR         MOCLDY    44  32  62 NW5       29.66R                  
6HR MIN TEMP:  43; 6HR MAX TEMP:  49;                                

GREENVILLE       N/A     34  32  92 VRB3      29.62S                  
6HR MIN TEMP:  34; 6HR MAX TEMP:  44; 6HR PCP:  0.01;                

MILLINOCKET    CLOUDY    44  32  62 NW6       29.65S                  
6HR MIN TEMP:  44; 6HR MAX TEMP:  49;                                

HOULTON        MOCLDY    41  31  67 CALM      29.62R                  
6HR MIN TEMP:  40; 6HR MAX TEMP:  46;                                

PRESQUE ISLE   MOCLDY    41  32  70 W7        29.63S                  
6HR MIN TEMP:  39; 6HR MAX TEMP:  45;                                

FRENCHVILLE    CLOUDY    37  32  82 NW9       29.62R                  
6HR MIN TEMP:  36; 6HR MAX TEMP:  44; 6HR PCP: TRACE;                

CARIBOU        CLOUDY    40  34  79 W3        29.62R                  
6HR MIN TEMP:  40; 6HR MAX TEMP:  46; 6HR PCP: TRACE;                

$$

NHZ002-005-008-009-011-012-014-260100-
NEW HAMPSHIRE
  
CITY           SKY/WX    TMP DP  RH WIND       PRES   REMARKS
PORTSMOUTH     PTCLDY    45  27  49 NW9       29.71R                  
ROCHESTER      MOCLDY    44  27  51 NW9       29.71R                  
6HR MIN TEMP:  44; 6HR MAX TEMP:  54;                                

NASHUA         MOCLDY    49  27  42 NW14      29.73R                  
MANCHESTER     MOCLDY    49  26  41 N10       29.72R                  
6HR MIN TEMP:  49; 6HR MAX TEMP:  56;                                

CONCORD        MOCLDY    45  27  49 N10       29.73R                  
6HR MIN TEMP:  45; 6HR MAX TEMP:  53;                                

LACONIA        MOCLDY    43  27  52 NW7       29.72R                  
PLYMOUTH       MOCLDY    41  33  74 CALM      29.74S                  
BERLIN         CLOUDY    39  29  67 CALM      29.70F                  
6HR MIN TEMP:  38; 6HR MAX TEMP:  43;                                

WHITEFIELD     CLOUDY    39  30  70 CALM      29.72S                  
6HR MIN TEMP:  37; 6HR MAX TEMP:  42;                                

JAFFREY        CLOUDY    46  27  47 VRB3      29.71R                  
6HR MIN TEMP:  46; 6HR MAX TEMP:  51;                                

KEENE          CLOUDY    48  27  43 N9        29.73R                  
LEBANON        CLOUDY    44  29  55 NE6       29.74S                  
6HR MIN TEMP:  44; 6HR MAX TEMP:  50;                                

MT WASHINGTON  FOG       18  18 100 N37G44      N/A  VSB 0   WCI  -4  
6HR MIN TEMP:  16; 6HR MAX TEMP:  18; 6HR PCP:  0.02;                

$$

VTZ005-007-008-260100-
VERMONT
  
CITY           SKY/WX    TMP DP  RH WIND       PRES   REMARKS
ST JOHNSBURY     N/A     42  31  64 MISG      29.72S                  
MONTPELIER     CLOUDY    38  30  73 CALM      29.77S                  
BURLINGTON     CLOUDY    47  28  47 CALM      29.74S                  
$$

MAZ007-012-024-CTZ003-RIZ002-NYZ038-NYZ072-260100-
SOUTHERN NEW ENGLAND AND NY
  
CITY           SKY/WX    TMP DP  RH WIND       PRES   REMARKS
BOSTON         MOCLDY    47  33  58 E8        29.72R                  
WORCESTER      CLOUDY    49  24  37 N9        29.70R                  
NANTUCKET      CLOUDY    44  34  67 SW10      29.72S                  
PROVIDENCE     MOCLDY    53  25  33 N8        29.69R                  
HARTFORD       PTCLDY    52  25  35 N5        29.70R                  
ALBANY         MOCLDY    51  26  37 NE6       29.73R                  
NEW YORK CITY  MOCLDY    53  33  46 SE10      29.70R                  
$$

ANZ081-ANZ082-ANZ150-NHZ014-MEZ023>029-260100-
COASTAL MARINE OBSERVATIONS
  
STATION/POSITION TIME  TEMP    WIND        PRES    WAVE
                       AIR SEA DIR/SP/G            HT/PER
                 (UTC) (F)     (DEG/KT/KT) (MB)    (FT/S)
$$

.............KEY..............
   WCI - WIND CHILL
   TC  - TEMPERATURE IN CELSIUS
   VSB - VISIBILITY IN MILES
   HX  - HEAT INDEX
   FAIR- INDICATES FEW OR NO CLOUDS BELOW 12,000 FT, WITH NO 
         SIGNIFICANT WEATHER AND/OR OBSTRUCTIONS TO VISIBILITY.



Return to Home page


Western Regional Climate Center, wrcc@dri.edu